This is the latest recevied weather packets stored in our database for station/object CQ0XVC-11. If no packets are shown the sender has not sent any weather packets the latest 10 day(s).
| Time | Temp. | Humidity | Pressure | Rain* | Wind** | Luminosity | Snow |
|---|---|---|---|---|---|---|---|
| 1778096944 | 13.33° C | 50% | 998.2 hPa | 0 mm | - | - | - |
| 1778096912 | 13.33° C | 50% | 998.2 hPa | 0 mm | - | - | - |
| 1778096308 | 13.89° C | 49% | 998 hPa | 0 mm | - | - | - |
| 1778096005 | 13.89° C | 46% | 998.1 hPa | 0 mm | - | - | - |
| 1778095742 | 13.89° C | 47% | 998 hPa | 0 mm | - | - | - |
| 1778095704 | 13.89° C | 47% | 998 hPa | 0 mm | - | - | - |
| 1778095401 | 14.44° C | 44% | 998.1 hPa | 0 mm | - | - | - |
| 1778095099 | 14.44° C | 41% | 998 hPa | 0 mm | - | - | - |
| 1778094861 | 14.44° C | 41% | 997.9 hPa | 0 mm | - | - | - |
| 1778094796 | 14.44° C | 41% | 997.9 hPa | 0 mm | - | - | - |
| 1778094495 | 15° C | 40% | 997.9 hPa | 0 mm | - | - | - |
| 1778094192 | 15° C | 39% | 998 hPa | 0 mm | - | - | - |
| 1778093935 | 15.56° C | 39% | 997.8 hPa | 0 mm | - | - | - |
| 1778093890 | 15.56° C | 39% | 997.8 hPa | 0 mm | - | - | - |
| 1778093622 | 15.56° C | 37% | 997.7 hPa | 0 mm | - | - | - |
| 1778093588 | 15.56° C | 37% | 997.7 hPa | 0 mm | - | - | - |
| 1778093286 | 15.56° C | 36% | 997.5 hPa | 0 mm | - | - | - |
| 1778093035 | 16.11° C | 32% | 997.7 hPa | 0 mm | - | - | - |
| 1778092983 | 16.11° C | 32% | 997.7 hPa | 0 mm | - | - | - |
| 1778092714 | 16.67° C | 35% | 997.4 hPa | 0 mm | - | - | - |
| 1778092682 | 16.67° C | 35% | 997.4 hPa | 0 mm | - | - | - |
| 1778092413 | 16.67° C | 36% | 997.5 hPa | 0 mm | - | - | - |
| 1778092379 | 16.67° C | 36% | 997.5 hPa | 0 mm | - | - | - |
| 1778092123 | 16.67° C | 36% | 997.4 hPa | 0 mm | - | - | - |
| 1778092077 | 16.67° C | 36% | 997.4 hPa | 0 mm | - | - | - |
* Rain since midnight (hover to see other rain measurements)
** Current wind speed in m/s (hover to see current wind gust speed)